www.pogodaiklimat.ru

Погода и климат >> Архив погоды >> Беларусь >> Новогрудок


ПОГОДА в Новогрудке

  • Прогноз погоды в Новогрудке
  • Монитор погоды в Новогрудке

АРХИВ ПОГОДЫ в Новогрудке

Время (UTC), дата Ветер
(напр.,м/с)
 
Видим.   Явления Облачность Т
(С)
Тd
(С)
f
(%)
Тe
(С)
Тes
(С)
Комфортность P
(гПа)
Po
(гПа)
Тmin
(С)
Tmax
(С)
R
(мм)
R24
(мм)
S
(см)
03 20.05 В 4 10 км 8/5 600 м
[Sc Ac trans]
+14.1 +8.3 68 +13 +13 1013.0 979.8 +14.0
06 20.05 В 4 10 км 6/4 600 м
[Sc Ac trans]
+16.4 +10.3 67 +16 +17 1013.0 980.1 +14.0
09 20.05 В 4
{10}
4000 м слаб. ливневой дождь 10/5 600 м
[Cb cap Ac As]
+17.7 +11.3 66 +17 +17 1013.0 980.3
12 20.05 СВ 4 10 км {гроза, ливн. осадки} 8/4 600 м
[Cb cap Ac trans Ci sp]
+20.5 +15.9 75 +24 +24 комфорт 1012.0 979.7
15 20.05 В 8-11
{13}
10 км 6/3 600 м
[Cb cap Ci fib]
+23.7 +16.0 62 +27 +27 жарко 1010.0 978.1
18 20.05 В 6
{13}
10 км 9/0
[Ac trans Ci fib]
+20.5 +10.9 54 +22 +22 комфорт 1010.0 977.7 +24.2 0.6
21 20.05 В 5
{10}
10 км 9/0
[Ac trans Ci fib]
+18.9 +9.7 55 +19 +19 1010.0 977.5
00 21.05 ЮВ 4 10 км 6/0
[Ac trans Ci sp]
+16.5 +9.4 63 +16 +16 1010.0 977.2
03 21.05 В 3 10 км 8/5 600 м
[Sc Ci fib]
+14.4 +9.2 71 +14 +14 1010.0 977.0 +14.0
06 21.05 В 4 10 км 8/3 600 м
[Sc Ac trans Ci fib]
+16.1 +9.7 66 +15 +15 1011.0 978.1 +14.0
09 21.05 В 11-11
{11}
10 км 8/0
[Cs]
+20.9 +11.0 53 +22 +22 комфорт 1009.0 976.7
12 21.05 В 5
{14}
10 км в посл. час гроза {ливн. осадки} 8/4 600 м
[Cb cap Ac trans Ci sp]
+16.9 +14.4 85 +16 +16 1009.0 976.3
15 21.05 В 8-10
{14}
10 км 6/4 600 м
[Cb cap Ci fib]
+20.9 +13.8 64 +23 +24 комфорт 1007.0 974.8
18 21.05 В 8-10
{15}
10 км 8/0
[Ac trans Ci fib]
+17.9 +11.9 68 +17 +17 1008.0 975.5 +21.6 0.5
21 21.05 В 4
{10}
10 км 3/0
[Ci fib]
+14.2 +9.2 72 +13 +13 1008.0 975.0
00 22.05 В 3 10 км 3/0
[Ci fib]
+12.2 +8.7 79 +11 +11 1008.0 974.8
03 22.05 В 2 10 км 4/0
[Ci fib]
+10.4 +8.0 85 +9 +9 1008.0 974.6 +10.2
06 22.05 В 3 4000 м дымка 9/9 240 м
[St]
+12.9 +12.0 94 +11 +11 1009.0 975.9 +10.2
09 22.05 В 3 10 км 4/4 600 м
[Cu med, cong]
+17.1 +12.6 75 +17 +26 1008.0 975.4
12 22.05 В 4 10 км 5/5 600 м
[Cu med, cong]
+20.2 +10.6 54 +22 +26 комфорт 1008.0 975.7
15 22.05 В 3 10 км 8/4 600 м
[Sc diur, vesp Ac trans]
+18.7 +11.7 64 +20 +20 1008.0 975.5
18 22.05 Ю 1 10 км 3/3 600 м
[Sc diur, vesp]
+18.1 +10.5 61 +19 +19 1008.0 975.5 +21.2
21 22.05 штиль 0 10 км ясно +13.1 +10.6 85 +13 +13 1009.0 975.9
00 23.05 З 1 10 км ясно +13.1 +10.6 85 +13 +13 1009.0 975.9
03 23.05 З 1 10 км 3/0
[Ci fib]
+12.1 +9.3 83 +12 +12 1009.0 975.7 +11.4
06 23.05 СЗ 1 10 км 4/0
[Ci fib]
+18.6 +11.9 65 +20 +26 1009.0 976.5 +11.4
09 23.05 СЗ 2 10 км 5/3 600 м
[Cu hum Ci fib]
+21.8 +11.2 51 +24 +30 комфорт 1009.0 976.8
12 23.05 ЮЗ 4 10 км 6/4 600 м
[Cu med, cong Ci fib]
+23.3 +10.0 43 +25 +29 комфорт 1008.0 976.0
15 23.05 З 2 10 км 8/4 600 м
[Cu med, cong Ci sp]
+24.0 +8.4 37 +25 +25 комфорт 1007.0 975.1
18 23.05 СЗ 3
{11}
10 км 8/4 600 м
[Cb cap Ci sp]
+19.2 +12.2 64 +21 +21 комфорт 1009.0 976.6 +25.2
21 23.05 СЗ 1 10 км 8/6 600 м
[Sc Ci fib]
+17.1 +13.0 77 +18 +18 1010.0 977.3
00 24.05 З 3 10 км 1/0
[Ac trans]
+14.9 +12.8 87 +14 +14 1010.0 977.1
03 24.05 СЗ 3 1000 м дымка 10/10 120 м
[St]
+13.8 +13.3 97 +13 +13 1010.0 976.9 +13.7
06 24.05 СЗ 3 200 м туман ?/? +13.7 +13.1 96 +12 +18 1011.0 977.9 +13.7
09 24.05 С 2 1000 м дымка {туман} 10/10 180 м
[St]
+13.9 +12.9 94 +13 +13 1011.0 977.9
12 24.05 З 3 4000 м дымка {туман} 9/9 300 м
[St]
+16.3 +14.8 91 +16 +16 1010.0 977.2
15 24.05 З 4 10 км 4/3 600 м
[Cu med, cong Ci fib]
+19.5 +13.7 69 +21 +23 комфорт 1009.0 976.6
18 24.05 З 2 10 км 9/0
[Ci sp]
+15.9 +13.6 86 +16 +16 1009.0 976.2 +19.6
21 24.05 СЗ 3 10 км 6/0
[Ci sp]
+14.2 +12.8 91 +13 +13 1009.0 976.0
00 25.05 СЗ 2 4000 м дымка 3/0
[Ac trans]
+12.9 +12.0 94 +12 +12 1009.0 975.9
03 25.05 СЗ 1 4000 м дымка 6/3 200 м
[St Ac trans Ci fib]
+12.3 +11.8 97 +12 +12 1009.0 975.8 +12.2
06 25.05 СЗ 2 4000 м дымка {туман} 6/3 200 м
[St Ac trans]
+14.7 +13.4 92 +14 +17 1009.0 976.1 +12.2
09 25.05 З 3 10 км 4/3 600 м
[Cu hum Ci fib]
+18.7 +12.0 65 +20 +28 1009.0 976.5
12 25.05 СЗ 3 10 км 3/3 600 м
[Cu hum Ci fib]
+20.7 +7.3 42 +22 +30 комфорт 1008.0 975.7
15 25.05 ЮЗ 2 10 км 8/4 600 м
[Cu med, cong Ci fib]
+20.9 +8.2 44 +23 +23 комфорт 1007.0 974.8
18 25.05 СЗ 2 10 км 8/4 600 м
[Sc diur, vesp Ci fib]
+17.9 +8.5 54 +18 +18 1008.0 975.4 +21.5
21 25.05 СЗ 2 10 км 3/0
[Ci fib]
+12.9 +6.7 66 +12 +12 1010.0 976.8
00 26.05 З 2 10 км 3/0
[Ci fib]
+9.1 +5.3 77 +7 +7 1011.0 977.3
03 26.05 СЗ 2 10 км 3 балла +7.7 +4.3 79 +6 +6 1011.0 977.1 +6.5
06 26.05 ЮЗ 4 10 км 10 баллов +10.1 +6.4 78 +8 +8 1012.0 978.4 +6.5
09 26.05 ЮЗ 6 10 км 10 баллов +13.3 +5.9 61 +11 +11 1011.0 977.8
12 26.05 ЮЗ 6
{11}
10 км 10 баллов +14.8 +5.8 55 +13 +13 1010.0 977.0
15 26.05 ЮЗ 6
{11}
10 км 10 баллов +14.8 +5.8 55 +13 +13 1010.0 977.0
18 26.05 ЮЗ 3
{11}
10 км 10 баллов +13.8 +6.9 63 +13 +13 1009.0 975.9 +15.5
21 26.05 ЮЗ 3 10 км 10 баллов +13.1 +7.1 67 +12 +12 1010.0 976.8
00 27.05 Ю 3 10 км 6 баллов +12.3 +7.6 73 +11 +11 1010.0 976.7

 

Местоположение метеостанции Новогрудок (Гродненская область, Беларусь): широта 53.60 долгота 25.85 высота над уровнем моря 280 м.

В архиве по умолчанию представлена погода в Новогрудке за последнюю неделю. Архивные данные за месяц целиком и за предыдущие месяцы, начиная с января 2011 года, Вы можете получить, выбрав интересующий диапазон дат из раскрывающегося списка и нажав кнопку "Ввод!".


*Определитесь, кто Вы:
робот инопланетянин человек

Внимание! Время в таблицах - всемирное. Для получения местного времени необходимо прибавить поправку, которая равна 3 ч.

Смотрите также архив погоды в соседних городах и на ближайших метеорологических станциях:

Погода в Лиде (Гродненская область, Беларусь) (48 км)
Погода в Барановичах (Брестская область, Беларусь) (53 км)
Погода в Столбцах (Минская область, Беларусь) (60 км)
Погода в Воложине (Минская область, Беларусь) (70 км)
Погода в Ошмянах (Гродненская область, Беларусь) (92 км)
Погода в Ганцевичах (Брестская область, Беларусь) (102 км)
Погода в Волковыске (Гродненская область, Беларусь) (104 км)
Погода в Ивацевичах (Брестская область, Беларусь) (105 км)
Погода в Варена (Литва) (112 км)
Погода в Гродно (Гродненская область, Беларусь) (119 км)

Пояснения к столбцам:

Ветер - указаны скорость ветра в м/с - средняя за 10 мин, порывы в срок и между сроками (в фигурных скобках) и направление, откуда дует ветер: С - северный, СВ - северо-восточный, В - восточный, ЮВ - юго-восточный, Ю - южный, ЮЗ - юго-западный, З - западный, СЗ - северо-западный.
Видимость - горизонтальная дальность видимости в метрах или километрах. При видимости от 1 до 10 км при отсутствии осадков обычно наблюдается дымка, при ухудшении видимости до 1 км и менее - туман. В сухую погоду видимость может ухудшаться дымом, пылью или мглою.
Явления - указаны атмосферные явления, наблюдавшиеся в срок или в последний час перед сроком; фигурными скобками обозначены явления, наблюдавшиеся между сроками (за 1-3 часа до срока); квадратными скобками обозначены град или гололедные отложения с указанием их диаметра в мм.
Облачность - указаны через наклонную черту общая и нижняя облачность в баллах и высота нижней границы облаков в метрах; квадратными скобками обозначены формы облаков: Ci - перистые, Cs - перисто-слоистые, Cc - перисто-кучевые, Ac - высококучевые, As - высокослоистые, Sc - слоисто-кучевые, Ns - слоисто-дождевые, Cu - кучевые, Cb - кучево-дождевые. Подробнее классификацию облаков см. в Атласе облаков (PDF).
T - Температура воздуха - температура, измеренная на высоте 2 м над землей.
Td - Температура точки росы - температура, при понижении до которой содержащийся в воздухе водяной пар достигнет насыщения.
f - Относительная влажность воздуха - влажноcть воздуха, измеренная на высоте 2 м над землей.
Te - Эффективная температура - температура, которую ощущает одетый по сезону человек в тени. Характеристика душности погоды. При расчете учитывается влияние влажности воздуха и скорости ветра на теплоощущения человека.
Tes - Эффективная температура на солнце - температура, которую ощущает человек, с поправкой на солнечный нагрев. Характеристика знойности погоды. Зависит от высоты солнца над горизонтом, облачности и скорости ветра. Ночью, в пасмурную погоду, а также при ветре 12 м/с и более поправка равна нулю.
P - Атмосферное давление - приведенное к уровню моря атмосферное давление.
Po - Атмосферное давление - измеренное на уровне метеостанции атмосферное давление.
Tmin - Минимальная температура - минимум температуры воздуха на высоте 2 м над землей.
Tmax - Максимальная температура - максимум температуры воздуха на высоте 2 м над землей.
R - Количество осадков - Количество выпавших осадков за период времени, мм. При наведении курсора мыши на число - период времени, за который выпало указанное количество осадков.
R24 - Количество осадков - Количество выпавших осадков за 24 часа, мм.
S - Снежный покров - Высота снежного покрова, см. При наведении курсора мыши на число - состояние снежного покрова и степень покрытия местности в баллах.